Change the Weather History Date:

Tuesday, January 8, 2013

  Actual Average Record
Temperature  
Mean Temperature 66 °F 60 °F  
Max Temperature 72 °F 70 °F 88 °F (1923)
Min Temperature 60 °F 49 °F 28 °F (1936)
Degree Days  
Heating Degree Days 0 7  
Month to date heating degree days 91 56  
Since 1 July heating degree days 204 304  
Cooling Degree Days 1 2  
Month to date cooling degree days 1 16  
Year to date cooling degree days 1 16  
Growing Degree Days 16 (Base 50)    
Moisture  
Dew Point 64 °F    
Average Humidity 90    
Maximum Humidity 100    
Minimum Humidity 79    
Precipitation  
Precipitation 1.04 in 0.02 in 1.37 in (1915)
Month to date precipitation 1.53 0.20  
Year to date precipitation 1.53 0.20  
Sea Level Pressure  
Sea Level Pressure 29.86 in    
Wind  
Wind Speed 15 mph (SSE)    
Max Wind Speed 46 mph    
Max Gust Speed 53 mph    
Visibility 8 miles    
Events Rain , Thunderstorm    
T = Trace of Precipitation, MM = Missing Value Source: NWS Daily Summary

Daily Weather History Graph

Daily Weather History Graph

Search for Another Location

Airport or City:

Trip Planner

Search our weather history database for the weather conditions in past years. The results will help you decide how hot, cold, wet, or windy it might be!

Date:

Astronomy

Jan. 08, 2013 Rise Set
Actual Time 7:19 AM CST 5:55 PM CST
Civil Twilight 6:54 AM CST 6:20 PM CST
Nautical Twilight 6:26 AM CST 6:49 PM CST
Astronomical Twilight 5:57 AM CST 7:17 PM CST
Moon 3:55 AM CST (1/8) 2:58 PM CST (1/8)
Length of Visible Light 11h 25m
Length of Day
10h 35m
Waning Crescent, 13% of the Moon is Illuminated
Jan 8
Waning Crescent
Jan 11
New
Jan 18
First Quarter
Jan 26
Full
Feb 3
Last Quarter

Hourly Weather History & Observations

Time (CST) Temp. Dew Point Humidity Pressure Visibility Wind Dir Wind Speed Gust Speed Precip Events Conditions
12:35 AM 60.8 °F 57.2 °F 88% 29.95 in 10.0 mi ESE 5.8 mph - 0.00 in   Overcast
12:52 AM 61.0 °F 57.9 °F 90% 29.96 in 10.0 mi Calm Calm - 0.00 in   Overcast
1:21 AM 62.6 °F 59.0 °F 88% 29.94 in 10.0 mi Calm Calm - N/A   Overcast
1:52 AM 62.1 °F 59.0 °F 90% 29.94 in 10.0 mi WSW 3.5 mph - N/A   Overcast
2:52 AM 62.1 °F 60.1 °F 93% 29.93 in 3.0 mi SE 4.6 mph - 0.02 in Rain Light Rain
3:52 AM 64.9 °F 63.0 °F 93% 29.90 in 10.0 mi SW 5.8 mph - 0.04 in   Mostly Cloudy
4:21 AM 64.4 °F 62.6 °F 94% 29.89 in 10.0 mi SE 3.5 mph - N/A   Scattered Clouds
4:31 AM 64.4 °F 62.6 °F 94% 29.89 in 10.0 mi SE 4.6 mph - N/A   Mostly Cloudy
4:40 AM 64.4 °F 62.6 °F 94% 29.88 in 10.0 mi SE 8.1 mph - N/A   Mostly Cloudy
4:52 AM 64.9 °F 63.0 °F 93% 29.88 in 10.0 mi SE 8.1 mph - N/A   Overcast
5:45 AM 64.4 °F 62.6 °F 94% 29.90 in 8.0 mi SE 10.4 mph - 0.01 in Rain Light Rain
5:52 AM 64.9 °F 63.0 °F 93% 29.89 in 8.0 mi SE 10.4 mph - 0.01 in Rain Light Rain
6:52 AM 66.9 °F 64.9 °F 93% 29.81 in 7.0 mi ESE 24.2 mph - 0.08 in Rain Rain
7:35 AM 66.2 °F 64.4 °F 94% 29.84 in 10.0 mi SE 21.9 mph 26.5 mph 0.00 in   Partly Cloudy
7:50 AM 66.2 °F 66.2 °F 100% 29.90 in 10.0 mi South 18.4 mph - 0.00 in   Mostly Cloudy
7:52 AM 66.9 °F 66.0 °F 97% 29.91 in 10.0 mi South 17.3 mph - 0.00 in   Mostly Cloudy
8:45 AM 66.2 °F 66.2 °F 100% 29.93 in 4.0 mi South 15.0 mph - 0.04 in Rain Rain
8:52 AM 66.9 °F 66.0 °F 97% 29.94 in 4.0 mi South 20.7 mph - 0.06 in Rain Rain
9:23 AM 66.2 °F 66.2 °F 100% 29.91 in 7.0 mi ESE 11.5 mph - N/A Rain Light Rain
9:52 AM 66.9 °F 66.0 °F 97% 29.88 in 9.0 mi ESE 19.6 mph - 0.10 in Rain Light Rain
10:05 AM 68.0 °F 66.2 °F 94% 29.83 in 7.0 mi SE 32.2 mph 39.1 mph 0.02 in Rain Rain
10:52 AM 69.1 °F 66.9 °F 93% 29.92 in 10.0 mi South 17.3 mph 26.5 mph 0.03 in Rain Light Rain
11:52 AM 70.0 °F 66.0 °F 87% 29.85 in 10.0 mi South 27.6 mph 38.0 mph 0.03 in Rain Light Rain
12:52 PM 70.0 °F 66.0 °F 87% 29.78 in 10.0 mi South 25.3 mph 35.7 mph 0.00 in   Partly Cloudy
1:52 PM 71.1 °F 64.9 °F 81% 29.78 in 10.0 mi South 23.0 mph 29.9 mph 0.00 in   Clear
2:52 PM 70.0 °F 64.9 °F 84% 29.73 in 10.0 mi South 18.4 mph 26.5 mph N/A   Clear
3:52 PM 71.1 °F 64.9 °F 81% 29.73 in 10.0 mi South 13.8 mph - N/A   Clear
4:52 PM 72.0 °F 64.0 °F 76% 29.72 in 10.0 mi South 19.6 mph 27.6 mph N/A   Clear
5:52 PM 71.1 °F 64.0 °F 78% 29.76 in 10.0 mi South 11.5 mph - N/A   Clear
6:32 PM 69.8 °F 64.4 °F 83% 29.80 in 10.0 mi West 4.6 mph - N/A   Mostly Cloudy
6:52 PM 70.0 °F 64.0 °F 81% 29.79 in 10.0 mi North 5.8 mph - N/A   Overcast
7:52 PM 66.9 °F 64.0 °F 90% 29.80 in 10.0 mi ENE 3.5 mph - N/A   Mostly Cloudy
8:33 PM 66.2 °F 64.4 °F 94% 29.82 in 10.0 mi SE 5.8 mph - N/A   Overcast
8:52 PM 66.9 °F 64.9 °F 93% 29.83 in 10.0 mi SSE 5.8 mph - 0.00 in Rain Light Rain
9:34 PM 68.0 °F 64.4 °F 88% 29.85 in 2.5 mi South 16.1 mph 24.2 mph 0.20 in Rain , Thunderstorm Heavy Thunderstorms and Rain
9:43 PM 69.8 °F 66.2 °F 88% 29.85 in 1.8 mi South 16.1 mph 24.2 mph 0.33 in Rain , Thunderstorm Heavy Thunderstorms and Rain
9:45 PM 69.8 °F 66.2 °F 88% 29.85 in 3.0 mi South 15.0 mph 24.2 mph 0.33 in Rain , Thunderstorm Thunderstorms and Rain
9:52 PM 69.1 °F 66.0 °F 90% 29.85 in 3.0 mi South 12.7 mph - 0.33 in Rain , Thunderstorm Light Rain
10:09 PM 69.8 °F 66.2 °F 88% 29.87 in 7.0 mi SSW 11.5 mph - 0.02 in Rain , Thunderstorm Light Rain
10:25 PM 69.8 °F 66.2 °F 88% 29.87 in 8.0 mi South 6.9 mph - 0.03 in Rain Light Rain
10:36 PM 69.8 °F 66.2 °F 88% 29.87 in 2.5 mi South 13.8 mph 19.6 mph 0.18 in Rain , Thunderstorm Heavy Thunderstorms and Rain
10:46 PM 69.8 °F 66.2 °F 88% 29.86 in 3.0 mi South 18.4 mph 24.2 mph 0.25 in Rain , Thunderstorm Thunderstorms and Rain
10:52 PM 69.1 °F 66.9 °F 93% 29.86 in 5.0 mi SSE 24.2 mph 28.8 mph 0.26 in Rain , Thunderstorm Light Thunderstorms and Rain
11:27 PM 68.0 °F 66.2 °F 94% 29.79 in 6.0 mi ESE 17.3 mph - 0.08 in   Scattered Clouds
11:49 PM 69.8 °F 66.2 °F 88% 29.81 in 7.0 mi SE 18.4 mph - 0.08 in   Scattered Clouds
11:52 PM 69.1 °F 66.9 °F 93% 29.81 in 8.0 mi SE 18.4 mph - 0.08 in   Scattered Clouds